Weather History for Cincinnati, OH

Change the Weather History Date:

Monday, February 17, 2014

  Actual Average Record
Temperature  
Mean Temperature 24 °F -  
Max Temperature 39 °F 42 °F 68 °F (2011)
Min Temperature 10 °F 25 °F 0 °F (1958)
Degree Days  
Heating Degree Days 40    
Moisture  
Dew Point 22 °F    
Average Humidity 80    
Maximum Humidity 93    
Minimum Humidity 57    
Precipitation  
Precipitation 0.43 in - - ()
Sea Level Pressure  
Sea Level Pressure 30.04 in    
Wind  
Wind Speed 6 mph (SSE)    
Max Wind Speed 26 mph    
Max Gust Speed 46 mph    
Visibility 6 miles    
Events Rain , Thunderstorm    
Averages and records for this station are not official NWS values.
T = Trace of Precipitation, MM = Missing Value Source: NWS Daily Summary

Daily Weather History Graph

Daily Weather History Graph

Search for Another Location

Airport:

Trip Planner

Search our weather history database for the weather conditions in past years. The results will help you decide how hot, cold, wet, or windy it might be!

Date:

Astronomy

Feb. 17, 2014 Rise Set
Actual Time 7:26 AM EST 6:17 PM EST
Civil Twilight 6:59 AM EST 6:44 PM EST
Nautical Twilight 6:28 AM EST 7:15 PM EST
Astronomical Twilight 5:57 AM EST 7:46 PM EST
Moon 9:09 PM EST (2/17) 8:28 AM EST (2/17)
Length of Visible Light 11h 45m
Length of Day
10h 50m
Waning Gibbous, 93% of the Moon is Illuminated
Feb 17
Waning Gibbous
Feb 22
Last Quarter
Mar 1
New
Mar 8
First Quarter
Mar 16
Full

Hourly Weather History & Observations

Time (EST) Temp. Windchill Dew Point Humidity Pressure Visibility Wind Dir Wind Speed Gust Speed Precip Events Conditions
12:53 AM 18.0 °F - 14.0 °F 84% 30.35 in 7.0 mi Calm Calm - N/A   Clear
1:53 AM 12.9 °F 5.2 °F 10.9 °F 92% 30.35 in 4.0 mi NE 4.6 mph - N/A   Clear
2:53 AM 10.0 °F 1.8 °F 8.1 °F 92% 30.35 in 3.0 mi NE 4.6 mph - N/A   Clear
3:53 AM 10.9 °F 1.4 °F 9.0 °F 92% 30.35 in 4.0 mi NE 5.8 mph - N/A   Clear
4:53 AM 10.0 °F 1.8 °F 7.0 °F 87% 30.33 in 4.0 mi NNE 4.6 mph - N/A   Clear
5:53 AM 10.0 °F 0.4 °F 7.0 °F 87% 30.33 in 5.0 mi NE 5.8 mph - N/A   Clear
6:53 AM 15.1 °F 4.2 °F 12.0 °F 88% 30.32 in 6.0 mi North 8.1 mph - N/A   Clear
7:53 AM 17.1 °F 8.7 °F 12.9 °F 84% 30.32 in 5.0 mi NE 5.8 mph - N/A   Overcast
8:53 AM 21.0 °F 14.6 °F 15.1 °F 78% 30.32 in 6.0 mi East 4.6 mph - N/A   Haze
9:53 AM 23.0 °F 15.8 °F 15.1 °F 72% 30.27 in 8.0 mi East 5.8 mph - N/A   Overcast
10:53 AM 25.0 °F 15.5 °F 16.0 °F 69% 30.21 in 9.0 mi East 9.2 mph - 0.00 in   Mostly Cloudy
11:53 AM 30.0 °F 24.1 °F 18.0 °F 61% 30.16 in 10.0 mi Variable 5.8 mph - N/A   Mostly Cloudy
12:53 PM 30.9 °F 23.5 °F 19.0 °F 61% 30.10 in 10.0 mi SE 8.1 mph - N/A   Overcast
1:53 PM 34.0 °F 28.0 °F 21.0 °F 59% 29.99 in 10.0 mi Variable 6.9 mph - N/A   Clear
2:53 PM 36.0 °F 29.6 °F 21.9 °F 57% 29.91 in 10.0 mi ESE 8.1 mph 16.1 mph N/A   Overcast
3:53 PM 35.1 °F 28.6 °F 26.1 °F 70% 29.82 in 5.0 mi East 8.1 mph - 0.04 in Rain Rain
4:27 PM 34.0 °F 31.0 °F 28.0 °F 79% 29.79 in 2.0 mi Variable 3.5 mph - 0.07 in Rain Heavy Rain
4:37 PM 34.0 °F - 28.0 °F 79% 29.80 in 1.8 mi Calm Calm - 0.13 in Rain , Thunderstorm Thunderstorms and Rain
4:53 PM 33.1 °F 30.0 °F 28.9 °F 85% 29.82 in 2.0 mi Variable 3.5 mph - 0.22 in Rain , Thunderstorm Thunderstorms and Rain
5:29 PM 34.0 °F - 30.0 °F 85% 29.77 in 6.0 mi Calm Calm - 0.06 in Rain Light Rain
5:53 PM 34.0 °F 28.0 °F 30.9 °F 89% 29.80 in 2.5 mi South 6.9 mph - 0.09 in Rain Rain
6:14 PM 34.0 °F 28.0 °F 30.9 °F 89% 29.79 in 4.0 mi SSW 6.9 mph - 0.03 in Rain Rain
6:31 PM 34.0 °F 26.6 °F 32.0 °F 92% 29.83 in 4.0 mi WSW 9.2 mph - 0.06 in Rain Rain
6:53 PM 35.1 °F 29.3 °F 33.1 °F 92% 29.79 in 6.0 mi SW 6.9 mph - 0.08 in Rain Light Rain
7:51 PM 37.4 °F 27.5 °F 35.6 °F 93% 29.79 in 9.0 mi SW 18.4 mph 24.2 mph 0.00 in   Overcast
7:53 PM 37.9 °F 28.5 °F 35.1 °F 89% 29.81 in 9.0 mi SW 17.3 mph - 0.00 in   Overcast
8:53 PM 39.0 °F 27.8 °F 33.1 °F 79% 29.88 in 10.0 mi WSW 26.5 mph 46.0 mph N/A   Overcast
9:53 PM 37.0 °F 26.2 °F 30.9 °F 79% 29.94 in 10.0 mi WSW 21.9 mph 34.5 mph N/A   Overcast
10:53 PM 37.0 °F 27.0 °F 28.9 °F 73% 29.97 in 10.0 mi WSW 18.4 mph 26.5 mph N/A   Overcast
11:44 PM 37.0 °F 26.7 °F 28.9 °F 73% 29.94 in 10.0 mi SW 19.6 mph 29.9 mph N/A   Overcast
11:53 PM 37.0 °F 27.4 °F 30.0 °F 76% 29.97 in 10.0 mi SW 17.3 mph 25.3 mph N/A   Overcast